[[{"header":{"parameterUnit":"m.s-1","parameterCategory":1,"la1":30.2991,"la2":30.254,"lo1":-89.0895,"lo2":-89.0444,"dy":0.0017,"dx":0.0017,"nx":28,"ny":28,"refTime":"2024-10-19T21:00:00:Z","depth":0,"parameterNumber":2,"parameterNumberName":"U-component_of_WINDS"},"data":[0,0,0,0,0,0,0,0,0,0,0,0,0,0,0,0,0,0,0,0,0,0,0,0,0,0,0,0,0,0,0,0,0,0,0,0,0,0,0,0,0,0,0,0,0,0,0,0,0,0,0,0,0,0,0,0,0,0,-1.7118,-1.7118,0,-1.7118,-1.7118,-1.7118,-1.7106,-1.7106,-1.7106,-1.7105,-1.7106,-1.7106,-1.7106,0,0,0,0,0,0,0,0,0,0,0,0,0,-1.7108,-1.7108,-1.7118,-1.7118,-1.7118,-1.7118,-1.7118,-1.7118,-1.7106,-1.7106,-1.7106,-1.7105,-1.7106,-1.7106,-1.7106,0,0,0,0,0,0,0,0,0,0,0,0,0,-1.7111,-1.7108,-1.7118,-1.7112,-1.7112,-1.7118,-1.7118,-1.7118,-1.7107,-1.7106,-1.7106,-1.7105,-1.7106,-1.7106,-1.7106,-1.7118,0,0,-1.7108,-1.7108,0,0,0,0,0,0,0,0,-1.711,-1.7111,-1.7113,-1.7113,-1.7112,-1.7112,-1.7114,-1.7118,-1.7107,-1.7108,-1.7105,-1.7105,-1.7108,-1.7108,-1.7109,-1.7118,-1.7118,-1.7108,-1.7108,-1.7108,-1.7108,0,0,0,0,0,0,0,-1.711,-1.7111,-1.7118,-1.7113,-1.7112,-1.711,-1.7109,-1.7115,-1.7111,-1.7108,-1.7107,-1.7108,-1.7108,-1.7109,-1.7109,-1.7118,-1.7108,-1.7108,-1.7108,-1.7109,-1.7138,-1.7138,0,0,0,0,0,0,-1.7111,-1.7111,-1.7118,-1.7118,-1.711,-1.711,-1.711,-1.7112,-1.7111,-1.711,-1.7108,-1.7107,-1.7108,-1.7109,-1.7109,-1.7124,-1.7108,-1.7109,-1.7109,-1.7137,-1.7138,-1.7138,0,0,0,0,0,0,-1.7111,-1.7112,-1.7118,-1.7114,-1.7115,-1.7111,-1.7113,-1.7112,-1.7114,-1.7111,-1.711,-1.711,-1.7108,-1.7109,-1.7116,-1.7124,-1.7109,-1.7109,-1.7136,-1.7137,-1.7138,-1.7153,0,0,0,0,0,0,-1.7111,-1.7112,-1.7116,-1.7114,-1.7115,-1.7125,-1.7114,-1.7113,-1.7114,-1.7113,-1.7112,-1.7112,-1.7108,-1.7116,-1.7117,-1.7124,-1.711,-1.7136,-1.7137,-1.7138,-1.7152,-1.7154,-1.7156,0,0,0,0,0,-1.711,-1.712,-1.7116,-1.7117,-1.712,-1.7125,-1.7126,-1.7121,-1.7115,-1.712,-1.7118,-1.7112,-1.7122,-1.7117,-1.7118,-1.7125,-1.7135,-1.7137,-1.7138,-1.7151,-1.7153,-1.7156,0,0,0,0,0,0,-1.7123,-1.712,-1.7116,-1.7125,-1.7126,-1.7123,-1.7129,-1.7124,-1.7126,-1.7125,-1.7119,-1.7119,-1.7128,-1.7127,-1.712,-1.7137,-1.7128,-1.7129,-1.7137,-1.714,-1.7142,-1.7143,-1.711,0,0,0,0,0,-1.7127,-1.7131,-1.7128,-1.7137,-1.7137,-1.7133,-1.7135,-1.7131,-1.7132,-1.7132,-1.713,-1.7131,-1.7134,-1.7137,-1.714,-1.7151,-1.7151,-1.7157,-1.7159,-1.716,-1.7162,-1.7169,-1.7172,-1.7142,-1.7142,-1.7142,0,0,-1.7135,-1.7134,-1.7137,-1.7139,-1.7139,-1.7144,-1.7133,-1.7139,-1.7142,-1.7132,-1.714,-1.7139,-1.7139,-1.7149,-1.7153,-1.7148,-1.717,-1.7162,-1.7163,-1.7164,-1.7171,-1.7173,-1.7176,-1.7143,-1.7143,-1.7143,0,0,-1.7153,-1.7152,-1.7159,-1.716,-1.716,-1.7157,-1.7158,-1.7157,-1.7156,-1.7163,-1.7156,-1.716,-1.7166,-1.7167,-1.7168,-1.7186,-1.7181,-1.7187,-1.7199,-1.7205,-1.7208,-1.721,-1.7218,-1.722,-1.7188,-1.7188,-1.7188,0,-1.7163,-1.717,-1.7164,-1.717,-1.7172,-1.7163,-1.7171,-1.7171,-1.7172,-1.7173,-1.7168,-1.7176,-1.7175,-1.7186,-1.719,-1.7191,-1.7193,-1.7188,-1.7208,-1.721,-1.7212,-1.7219,-1.7222,-1.7189,-1.7189,-1.7189,-1.7189,0,-1.7183,-1.7188,-1.7194,-1.7196,-1.7198,-1.7205,-1.72,-1.7203,-1.7199,-1.7197,-1.7204,-1.7203,-1.7206,-1.7208,-1.7204,-1.7218,-1.7215,-1.7209,-1.72,-1.7216,-1.7223,-1.7225,-1.719,-1.719,-1.719,-1.719,0,0,-1.721,-1.7208,-1.7211,-1.7211,-1.721,-1.7214,-1.7221,-1.7224,-1.7227,-1.7227,-1.7233,-1.7239,-1.7233,-1.7234,-1.723,-1.7236,-1.7251,-1.7229,-1.7229,-1.7234,-1.7268,-1.7274,-1.7277,-1.7247,-1.7248,-1.7248,-1.7269,0,-1.7229,-1.724,-1.7235,-1.7247,-1.7252,-1.7243,-1.7249,-1.7249,-1.7247,-1.7251,-1.7248,-1.7253,-1.7244,-1.7245,-1.725,-1.7248,-1.7258,-1.7247,-1.7254,-1.7254,-1.7256,-1.7281,-1.7287,-1.7306,-1.7271,-1.7271,-1.7272,0,-1.7252,-1.7254,-1.7267,-1.7265,-1.7267,-1.7273,-1.7275,-1.7279,-1.7279,-1.7277,-1.7278,-1.7273,-1.728,-1.727,-1.7279,-1.7271,-1.7274,-1.7273,-1.7274,-1.7276,-1.7265,-1.7285,-1.7312,-1.7316,-1.7276,-1.7275,-1.7275,0,-1.7272,-1.7278,-1.7286,-1.7287,-1.7285,-1.729,-1.7289,-1.7289,-1.7291,-1.7293,-1.7294,-1.7297,-1.7299,-1.7301,-1.7297,-1.729,-1.7308,-1.7297,-1.7307,-1.7308,-1.7313,-1.7313,-1.7343,-1.7312,-1.7311,-1.7311,-1.7311,0,-1.7294,-1.7303,-1.7296,-1.7301,-1.731,-1.7304,-1.7313,-1.7312,-1.7312,-1.7317,-1.7309,-1.7314,-1.7307,-1.7312,-1.7308,-1.7317,-1.7318,-1.7317,-1.7316,-1.7319,-1.7319,-1.7322,-1.7321,-1.7312,-1.7312,-1.7312,-1.7312,0,-1.7319,-1.7314,-1.7324,-1.7321,-1.7321,-1.7328,-1.7326,-1.7331,-1.7328,-1.7335,-1.7336,-1.7332,-1.7337,-1.7332,-1.7337,-1.7334,-1.7347,-1.7344,-1.7347,-1.7347,-1.7358,-1.7358,-1.7392,-1.7397,-1.7361,-1.7361,-1.7362,0,-1.7334,-1.7341,-1.7339,-1.7342,-1.7342,-1.7347,-1.7349,-1.7343,-1.7346,-1.7346,-1.7351,-1.7356,-1.7359,-1.7367,-1.7365,-1.7368,-1.7366,-1.7378,-1.7367,-1.7369,-1.7368,-1.7369,-1.737,-1.7381,-1.7381,-1.7381,-1.7382,0,-1.7363,-1.736,-1.7364,-1.7367,-1.737,-1.7372,-1.7373,-1.7376,-1.7369,-1.7373,-1.7378,-1.738,-1.7385,-1.739,-1.7393,-1.7392,-1.7387,-1.7385,-1.7388,-1.7391,-1.7394,-1.7394,-1.7356,-1.7385,-1.7384,-1.7384,-1.7384,-1.7384,-1.7384,-1.739,-1.739,-1.7394,-1.7395,-1.7396,-1.7401,-1.7399,-1.7403,-1.7406,-1.7402,-1.7409,-1.7409,-1.7412,-1.7412,-1.7417,-1.7413,-1.7416,-1.7418,-1.7419,-1.7422,-1.7392,-1.7418,-1.7418,-1.7417,-1.7417,-1.7417,0,-1.7414,-1.7413,-1.7417,-1.7419,-1.7423,-1.7416,-1.7417,-1.7421,-1.7427,-1.7427,-1.7431,-1.7437,-1.7441,-1.7439,-1.7443,-1.7448,-1.7445,-1.7449,-1.745,-1.745,-1.7425,-1.7423,-1.7451,-1.7451,-1.7451,-1.7451,-1.7451,-1.7451,-1.743,-1.7439,-1.7437,-1.7446,-1.7445,-1.7452,-1.7453,-1.7455,-1.7455,-1.7463,-1.7466,-1.7464,-1.7464,-1.7468,-1.7472,-1.7471,-1.7474,-1.7479,-1.7478,-1.7455,-1.7451,-1.7448,-1.7447,-1.7479,-1.7479,-1.7502,-1.7503,-1.7503]},{"header":{"parameterUnit":"m.s-1","parameterCategory":1,"la1":30.2991,"la2":30.254,"lo1":-89.0895,"lo2":-89.0444,"dy":0.0017,"dx":0.0017,"nx":28,"ny":28,"refTime":"2024-10-19T21:00:00:Z","depth":0,"parameterNumber":3,"parameterNumberName":"V-component_of_WINDS"},"data":[0,0,0,0,0,0,0,0,0,0,0,0,0,0,0,0,0,0,0,0,0,0,0,0,0,0,0,0,0,0,0,0,0,0,0,0,0,0,0,0,0,0,0,0,0,0,0,0,0,0,0,0,0,0,0,0,0,0,-2.0192,-2.0193,0,-2.028,-2.0281,-2.0282,-2.0319,-2.0319,-2.0318,-2.0318,-2.0407,-2.0409,-2.0412,0,0,0,0,0,0,0,0,0,0,0,0,0,-2.0057,-2.006,-2.0192,-2.0193,-2.0194,-2.0279,-2.0281,-2.0282,-2.0319,-2.0318,-2.0318,-2.0318,-2.0406,-2.0409,-2.0412,0,0,0,0,0,0,0,0,0,0,0,0,0,-2.0127,-2.006,-2.0192,-2.0223,-2.0227,-2.0279,-2.0281,-2.0282,-2.0319,-2.0318,-2.0318,-2.0318,-2.0405,-2.0409,-2.0412,-2.044,0,0,-2.0424,-2.0425,0,0,0,0,0,0,0,0,-2.0123,-2.0132,-2.0217,-2.0221,-2.0225,-2.0288,-2.0265,-2.0335,-2.0319,-2.0284,-2.0318,-2.0318,-2.0367,-2.0374,-2.0391,-2.0444,-2.0448,-2.0424,-2.0426,-2.0428,-2.0429,0,0,0,0,0,0,0,-2.0118,-2.0129,-2.0227,-2.0219,-2.0223,-2.0233,-2.0242,-2.0279,-2.0326,-2.0287,-2.029,-2.03,-2.0369,-2.0387,-2.0393,-2.0449,-2.0424,-2.0427,-2.043,-2.0431,-2.0531,-2.0531,0,0,0,0,0,0,-2.0108,-2.0124,-2.0224,-2.0229,-2.0173,-2.0235,-2.0246,-2.0268,-2.0325,-2.0334,-2.03,-2.0301,-2.0381,-2.0389,-2.0397,-2.0434,-2.0428,-2.0431,-2.0434,-2.0531,-2.0531,-2.0532,0,0,0,0,0,0,-2.0105,-2.0117,-2.022,-2.0178,-2.0192,-2.0238,-2.0262,-2.027,-2.0288,-2.0335,-2.0344,-2.0309,-2.0381,-2.0391,-2.0429,-2.0438,-2.0433,-2.0437,-2.053,-2.0531,-2.0531,-2.0508,0,0,0,0,0,0,-2.0101,-2.0116,-2.0127,-2.0178,-2.0194,-2.0252,-2.0263,-2.0272,-2.0294,-2.0297,-2.0347,-2.0355,-2.0382,-2.0424,-2.0433,-2.0443,-2.044,-2.053,-2.053,-2.0531,-2.0508,-2.0508,-2.0507,0,0,0,0,0,-2.0096,-2.0116,-2.0127,-2.0139,-2.0209,-2.0252,-2.0261,-2.0292,-2.0295,-2.0306,-2.0337,-2.0353,-2.0435,-2.0427,-2.0438,-2.0449,-2.0529,-2.053,-2.0531,-2.0509,-2.0508,-2.0507,0,0,0,0,0,0,-2.0064,-2.0123,-2.0136,-2.0173,-2.0207,-2.0258,-2.0274,-2.029,-2.0324,-2.0325,-2.0362,-2.0373,-2.0408,-2.0432,-2.0423,-2.048,-2.0483,-2.0487,-2.0463,-2.0462,-2.0462,-2.0456,-2.0443,0,0,0,0,0,-2.0062,-2.0092,-2.0142,-2.017,-2.0186,-2.0227,-2.0247,-2.0268,-2.0305,-2.032,-2.0353,-2.0388,-2.0422,-2.0443,-2.0477,-2.0512,-2.0524,-2.0525,-2.0524,-2.0524,-2.0526,-2.0548,-2.0549,-2.0534,-2.0534,-2.0534,0,0,-2.0056,-2.0092,-2.0109,-2.0164,-2.0193,-2.0224,-2.0239,-2.0271,-2.0294,-2.0324,-2.0363,-2.0388,-2.043,-2.0467,-2.0485,-2.0488,-2.0533,-2.0525,-2.0524,-2.0527,-2.0549,-2.055,-2.0551,-2.0535,-2.0535,-2.0535,0,0,-2.0062,-2.0092,-2.0119,-2.0148,-2.0192,-2.022,-2.0226,-2.0275,-2.0293,-2.0332,-2.0356,-2.0384,-2.0441,-2.047,-2.0493,-2.0511,-2.0527,-2.0521,-2.0518,-2.0539,-2.054,-2.0541,-2.0549,-2.0551,-2.0523,-2.0523,-2.0523,0,-2.005,-2.0098,-2.0131,-2.0162,-2.0186,-2.0215,-2.0243,-2.0269,-2.0322,-2.0338,-2.0341,-2.0414,-2.0444,-2.0489,-2.0493,-2.051,-2.0519,-2.0515,-2.0537,-2.0539,-2.054,-2.0548,-2.0551,-2.0522,-2.0522,-2.0522,-2.0522,0,-2.0081,-2.0114,-2.013,-2.0181,-2.0207,-2.0236,-2.0273,-2.0295,-2.0314,-2.0341,-2.0381,-2.0418,-2.046,-2.0472,-2.0491,-2.052,-2.0521,-2.053,-2.0535,-2.054,-2.0548,-2.0551,-2.052,-2.0521,-2.0521,-2.0521,0,0,-2.0069,-2.0139,-2.0144,-2.0168,-2.0219,-2.0245,-2.0276,-2.0318,-2.0336,-2.0372,-2.0399,-2.0447,-2.0456,-2.0481,-2.0503,-2.0521,-2.0535,-2.0529,-2.053,-2.0529,-2.0571,-2.0565,-2.0567,-2.0546,-2.0547,-2.0547,-2.0568,0,-2.0083,-2.014,-2.0171,-2.0215,-2.0246,-2.0274,-2.0301,-2.0336,-2.0362,-2.0392,-2.0421,-2.0455,-2.0463,-2.0479,-2.0498,-2.0529,-2.0544,-2.0528,-2.0572,-2.0574,-2.0562,-2.0571,-2.0565,-2.0582,-2.0571,-2.0572,-2.0572,0,-2.0106,-2.0142,-2.0189,-2.0238,-2.0252,-2.0276,-2.0318,-2.0346,-2.0386,-2.0404,-2.0432,-2.0454,-2.0488,-2.049,-2.0538,-2.0527,-2.0547,-2.0565,-2.0566,-2.0572,-2.0574,-2.0579,-2.0589,-2.0592,-2.0577,-2.0577,-2.0576,0,-2.0094,-2.0154,-2.019,-2.021,-2.0267,-2.0284,-2.0308,-2.0348,-2.0371,-2.0407,-2.0423,-2.0463,-2.0484,-2.0515,-2.0547,-2.0545,-2.0592,-2.0597,-2.0609,-2.0608,-2.0618,-2.0617,-2.0632,-2.0629,-2.0629,-2.0629,-2.0629,0,-2.0107,-2.0135,-2.0186,-2.0208,-2.0241,-2.0276,-2.0307,-2.0334,-2.037,-2.0398,-2.0425,-2.0451,-2.0492,-2.0523,-2.0549,-2.0585,-2.0595,-2.061,-2.0617,-2.0609,-2.0607,-2.0623,-2.0623,-2.063,-2.063,-2.0629,-2.0629,0,-2.0099,-2.0134,-2.0176,-2.0227,-2.0241,-2.0263,-2.0307,-2.033,-2.0357,-2.0393,-2.0403,-2.0447,-2.0485,-2.052,-2.0571,-2.0589,-2.0626,-2.0634,-2.0613,-2.0617,-2.0627,-2.0626,-2.0654,-2.066,-2.0652,-2.0652,-2.0652,0,-2.0105,-2.0127,-2.0181,-2.0203,-2.0227,-2.026,-2.0285,-2.0321,-2.0345,-2.0393,-2.0411,-2.0451,-2.0485,-2.0546,-2.0582,-2.0621,-2.0631,-2.0638,-2.0637,-2.0629,-2.0633,-2.0632,-2.0635,-2.0638,-2.0638,-2.0638,-2.0638,0,-2.0112,-2.0129,-2.0163,-2.0204,-2.0233,-2.0267,-2.0301,-2.0317,-2.036,-2.0386,-2.0426,-2.0452,-2.0505,-2.0545,-2.0589,-2.0615,-2.0634,-2.0638,-2.0643,-2.0635,-2.0622,-2.0631,-2.0613,-2.0637,-2.0637,-2.0637,-2.0637,-2.0637,-2.0112,-2.0134,-2.0176,-2.0214,-2.0244,-2.0276,-2.03,-2.0331,-2.0365,-2.0411,-2.043,-2.0471,-2.0512,-2.0573,-2.0598,-2.0631,-2.0635,-2.0642,-2.0644,-2.0646,-2.0645,-2.0616,-2.0639,-2.0639,-2.0639,-2.0639,-2.0639,0,-2.0122,-2.015,-2.0185,-2.0233,-2.0263,-2.0278,-2.0318,-2.0342,-2.0377,-2.0414,-2.0447,-2.0494,-2.0534,-2.0573,-2.0615,-2.0634,-2.0644,-2.0644,-2.0643,-2.0649,-2.0638,-2.063,-2.0635,-2.0635,-2.0635,-2.0635,-2.0635,-2.0635,-2.013,-2.0169,-2.019,-2.0244,-2.0272,-2.0313,-2.0334,-2.0364,-2.0394,-2.0445,-2.0478,-2.0503,-2.0542,-2.0587,-2.0624,-2.0635,-2.065,-2.0647,-2.0661,-2.065,-2.065,-2.065,-2.0642,-2.065,-2.065,-2.0669,-2.0669,-2.0669]}]]